QPF
0.04 0.05 0.08 0.05 0.04 0.04 0.04 0.04 0.05 0.04 0.04 0.04 0.05 0.04 0.05 0.06 0.05 0.07 0.08 0.07 0.07 0.05 0.05 0.08 0.10 0.08 0.08 0.10 0.08 0.09 0.10 0.11 0.09 0.09 0.10 0.14 0.16 0.14 0.09 0.07 0.07 0.06 0.06
0.03 0.05 0.07 0.06 0.03 0.04 0.06 0.06 0.05 0.04 0.03 0.03 0.03 0.04 0.04 0.04 0.06 0.05 0.06 0.07 0.05 0.03 0.04 0.04 0.07 0.07 0.05 0.06 0.08 0.08 0.10 0.11 0.10 0.08 0.08 0.12 0.15 0.13 0.11 0.13 0.13 0.10 0.08
0.03 0.02 0.02 0.04 0.03 0.03 0.05 0.05 0.07 0.04 0.03 0.03 0.02 0.02 0.03 0.05 0.09 0.10 0.08 0.05 0.03 0.03 0.04 0.05 0.04 0.03 0.04 0.04 0.06 0.07 0.09 0.07 0.04 0.05 0.05 0.03 0.06 0.10 0.12 0.12 0.10 0.08 0.08
0.03 0.02 0.01 0.02 0.02 0.02 0.03 0.04 0.04 0.03 0.02 0.04 0.03 0.02 0.03 0.05 0.06 0.05 0.03 0.03 0.03 0.04 0.05 0.06 0.04 0.03 0.03 0.03 0.05 0.06 0.06 0.05 0.04 0.04 0.03 0.04 0.07 0.10 0.10 0.08 0.07 0.07 0.07
0.01 0.01 0.02 0.02 0.01 0.01 0.01 0.01 0.02 0.02 0.02 0.03 0.04 0.04 0.04 0.03 0.03 0.03 0.03 0.04 0.04 0.05 0.04 0.05 0.04 0.03 0.03 0.03 0.05 0.09 0.07 0.04 0.04 0.02 0.02 0.03 0.04 0.07 0.09 0.08 0.07 0.06 0.07
0.00 0.01 0.02 0.02 0.02 0.01 0.01 0.01 0.02 0.02 0.02 0.03 0.05 0.04 0.03 0.03 0.04 0.04 0.05 0.07 0.05 0.02 0.02 0.02 0.03 0.03 0.03 0.03 0.05 0.08 0.06 0.03 0.01 0.01 0.03 0.03 0.04 0.09 0.10 0.08 0.07 0.07 0.08
0.00 0.00 0.01 0.02 0.02 0.02 0.02 0.02 0.02 0.03 0.03 0.04 0.05 0.03 0.02 0.03 0.03 0.04 0.06 0.09 0.03 0.01 0.02 0.02 0.02 0.02 0.03 0.04 0.05 0.04 0.03 0.02 0.02 0.03 0.05 0.06 0.09 0.10 0.07 0.06 0.06 0.05 0.08
0.00 0.00 0.01 0.01 0.01 0.02 0.03 0.01 0.01 0.02 0.04 0.03 0.03 0.02 0.04 0.03 0.03 0.03 0.04 0.03 0.02 0.01 0.02 0.02 0.02 0.02 0.02 0.02 0.03 0.04 0.04 0.03 0.02 0.02 0.02 0.02 0.04 0.05 0.03 0.05 0.05 0.06 0.07
0.00 0.00 0.00 0.00 0.00 0.01 0.02 0.02 0.03 0.03 0.03 0.03 0.03 0.03 0.03 0.02 0.02 0.03 0.03 0.03 0.03 0.02 0.01 0.01 0.01 0.01 0.01 0.02 0.02 0.03 0.03 0.02 0.01 0.00 0.01 0.01 0.03 0.04 0.04 0.04 0.05 0.07 0.07
0.00 0.00 0.00 0.00 0.00 0.00 0.00 0.01 0.02 0.01 0.02 0.03 0.03 0.02 0.02 0.01 0.01 0.02 0.02 0.03 0.03 0.04 0.02 0.01 0.01 0.01 0.02 0.02 0.02 0.02 0.01 0.01 0.01 0.01 0.01 0.02 0.05 0.06 0.06 0.06 0.05 0.06 0.05
0.00 0.00 0.00 0.00 0.00 0.00 0.00 0.01 0.01 0.01 0.01 0.02 0.02 0.02 0.01 0.00 0.01 0.02 0.02 0.04 0.03 0.02 0.02 0.01 0.01 0.02 0.02 0.02 0.02 0.01 0.00 0.00 0.01 0.01 0.01 0.03 0.04 0.05 0.07 0.06 0.06 0.06 0.07
0.00 0.00 0.01 0.00 0.00 0.00 0.00 0.00 0.00 0.00 0.00 0.01 0.01 0.01 0.00 0.00 0.00 0.01 0.02 0.02 0.01 0.01 0.01 0.01 0.01 0.01 0.01 0.00 0.01 0.01 0.00 0.00 0.01 0.02 0.02 0.04 0.05 0.06 0.06 0.06 0.06 0.07 0.07
0.01 0.00 0.01 0.00 0.00 0.01 0.02 0.01 0.00 0.00 0.00 0.00 0.00 0.01 0.00 0.00 0.00 0.00 0.00 0.01 0.01 0.01 0.01 0.01 0.01 0.00 0.00 0.00 0.00 0.01 0.01 0.02 0.08 0.05 0.02 0.04 0.05 0.05 0.05 0.05 0.06 0.06 0.05
0.01 0.00 0.00 0.00 0.00 0.00 0.01 0.01 0.00 0.00 0.00 0.01 0.00 0.01 0.01 0.00 0.00 0.00 0.00 0.00 0.00 0.00 0.00 0.01 0.01 0.01 0.00 0.00 0.00 0.00 0.00 0.01 0.05 0.05 0.04 0.05 0.07 0.06 0.05 0.05 0.04 0.04 0.04
0.02 0.01 0.01 0.01 0.00 0.00 0.01 0.02 0.01 0.01 0.00 0.00 0.00 0.00 0.01 0.00 0.00 0.00 0.00 0.00 0.00 0.00 0.00 0.00 0.01 0.01 0.00 0.00 0.00 0.00 0.00 0.01 0.03 0.06 0.07 0.07 0.07 0.07 0.06 0.05 0.04 0.04 0.04
0.03 0.02 0.01 0.01 0.01 0.01 0.01 0.01 0.02 0.01 0.01 0.01 0.01 0.02 0.01 0.01 0.00 0.00 0.01 0.01 0.00 0.00 0.00 0.00 0.01 0.00 0.00 0.00 0.00 0.00 0.00 0.00 0.01 0.03 0.04 0.04 0.04 0.05 0.06 0.05 0.04 0.04 0.03
0.03 0.03 0.02 0.02 0.02 0.01 0.01 0.01 0.01 0.01 0.01 0.01 0.02 0.03 0.02 0.02 0.01 0.01 0.01 0.01 0.01 0.01 0.00 0.00 0.00 0.00 0.00 0.00 0.01 0.01 0.01 0.00 0.00 0.00 0.01 0.01 0.03 0.03 0.03 0.03 0.06 0.09 0.08
0.03 0.04 0.04 0.05 0.04 0.03 0.01 0.01 0.02 0.02 0.03 0.02 0.02 0.03 0.03 0.03 0.02 0.03 0.02 0.02 0.01 0.01 0.01 0.01 0.01 0.01 0.01 0.01 0.01 0.01 0.01 0.01 0.01 0.01 0.01 0.01 0.02 0.01 0.02 0.02 0.04 0.12 0.12
0.04 0.06 0.07 0.06 0.05 0.04 0.03 0.02 0.03 0.04 0.04 0.04 0.04 0.04 0.03 0.05 0.05 0.04 0.02 0.03 0.02 0.02 0.02 0.02 0.03 0.02 0.03 0.02 0.01 0.00 0.01 0.01 0.01 0.02 0.02 0.03 0.02 0.01 0.01 0.01 0.03 0.06 0.07
0.04 0.07 0.07 0.05 0.04 0.04 0.03 0.03 0.04 0.05 0.05 0.04 0.04 0.05 0.05 0.05 0.04 0.03 0.02 0.03 0.03 0.02 0.02 0.02 0.02 0.02 0.04 0.04 0.02 0.01 0.01 0.02 0.02 0.02 0.03 0.03 0.03 0.02 0.02 0.02 0.03 0.03 0.04
0.04 0.05 0.05 0.05 0.04 0.04 0.04 0.04 0.04 0.04 0.06 0.05 0.04 0.04 0.04 0.03 0.03 0.03 0.02 0.02 0.02 0.02 0.02 0.01 0.01 0.02 0.02 0.04 0.04 0.04 0.04 0.04 0.04 0.03 0.04 0.04 0.04 0.04 0.04 0.04 0.03 0.02 0.03
0.03 0.03 0.03 0.04 0.05 0.05 0.05 0.04 0.04 0.05 0.06 0.06 0.06 0.05 0.05 0.05 0.04 0.03 0.03 0.03 0.03 0.03 0.02 0.02 0.02 0.02 0.02 0.04 0.06 0.07 0.08 0.10 0.11 0.08 0.06 0.05 0.05 0.05 0.05 0.04 0.03 0.03 0.03
0.02 0.03 0.02 0.03 0.05 0.05 0.06 0.06 0.04 0.04 0.05 0.05 0.05 0.05 0.04 0.04 0.04 0.04 0.04 0.04 0.05 0.05 0.04 0.03 0.04 0.03 0.04 0.07 0.08 0.09 0.09 0.10 0.11 0.11 0.10 0.08 0.07 0.06 0.06 0.05 0.03 0.02 0.02
0.01 0.01 0.01 0.01 0.02 0.04 0.05 0.08 0.08 0.05 0.03 0.03 0.02 0.04 0.05 0.05 0.03 0.03 0.04 0.05 0.05 0.04 0.04 0.04 0.04 0.04 0.04 0.07 0.07 0.09 0.11 0.11 0.08 0.09 0.09 0.08 0.07 0.07 0.07 0.07 0.05 0.03 0.03
0.00 0.00 0.01 0.01 0.02 0.02 0.03 0.06 0.08 0.08 0.06 0.04 0.03 0.03 0.04 0.04 0.04 0.04 0.05 0.06 0.05 0.05 0.04 0.04 0.04 0.03 0.03 0.03 0.03 0.04 0.05 0.05 0.06 0.07 0.07 0.06 0.06 0.06 0.06 0.07 0.07 0.05 0.05
0.01 0.01 0.02 0.02 0.02 0.02 0.02 0.04 0.06 0.07 0.07 0.06 0.04 0.03 0.03 0.03 0.04 0.05 0.07 0.06 0.05 0.05 0.05 0.05 0.04 0.03 0.03 0.03 0.03 0.02 0.03 0.04 0.05 0.05 0.06 0.06 0.06 0.06 0.05 0.04 0.05 0.04 0.04
MSLP
1016.41 1015.75 1015.20 1014.85 1014.70 1014.73 1014.89 1015.09 1015.26 1015.37 1015.39 1015.35 1015.30 1015.28 1015.32 1015.43 1015.59 1015.76 1015.90 1015.97 1015.95 1015.85 1015.69 1015.51 1015.35 1015.24 1015.19 1015.18 1015.19 1015.20 1015.18 1015.11 1015.00 1014.85 1014.69 1014.54 1014.41 1014.29 1014.19 1014.10 1014.02 1013.93 1013.83
1016.58 1015.94 1015.41 1015.05 1014.89 1014.90 1015.02 1015.19 1015.34 1015.43 1015.45 1015.43 1015.41 1015.42 1015.51 1015.66 1015.86 1016.06 1016.21 1016.27 1016.24 1016.12 1015.93 1015.74 1015.56 1015.43 1015.36 1015.33 1015.32 1015.30 1015.25 1015.16 1015.03 1014.86 1014.69 1014.53 1014.38 1014.26 1014.15 1014.04 1013.94 1013.84 1013.74
1016.65 1016.05 1015.55 1015.20 1015.03 1015.03 1015.14 1015.30 1015.43 1015.52 1015.55 1015.54 1015.55 1015.60 1015.72 1015.90 1016.10 1016.29 1016.42 1016.46 1016.40 1016.25 1016.05 1015.84 1015.65 1015.52 1015.44 1015.40 1015.37 1015.33 1015.26 1015.15 1015.00 1014.82 1014.64 1014.47 1014.31 1014.17 1014.05 1013.93 1013.81 1013.70 1013.59
1016.61 1016.07 1015.61 1015.30 1015.16 1015.17 1015.28 1015.44 1015.57 1015.66 1015.71 1015.73 1015.76 1015.83 1015.95 1016.12 1016.30 1016.46 1016.54 1016.53 1016.43 1016.25 1016.04 1015.82 1015.64 1015.52 1015.44 1015.40 1015.37 1015.32 1015.23 1015.10 1014.94 1014.75 1014.56 1014.38 1014.21 1014.06 1013.91 1013.77 1013.64 1013.50 1013.38
1016.48 1016.01 1015.62 1015.37 1015.28 1015.33 1015.47 1015.64 1015.79 1015.89 1015.95 1015.98 1016.02 1016.09 1016.20 1016.34 1016.47 1016.56 1016.58 1016.51 1016.36 1016.15 1015.93 1015.72 1015.56 1015.46 1015.40 1015.37 1015.34 1015.29 1015.19 1015.05 1014.87 1014.67 1014.47 1014.28 1014.10 1013.93 1013.77 1013.60 1013.44 1013.28 1013.14
1016.32 1015.93 1015.62 1015.46 1015.45 1015.55 1015.73 1015.92 1016.08 1016.19 1016.26 1016.29 1016.33 1016.39 1016.47 1016.55 1016.62 1016.63 1016.57 1016.43 1016.23 1016.00 1015.78 1015.59 1015.46 1015.40 1015.37 1015.36 1015.33 1015.27 1015.16 1015.00 1014.81 1014.60 1014.40 1014.20 1014.01 1013.82 1013.63 1013.43 1013.23 1013.04 1012.87
1016.19 1015.88 1015.67 1015.61 1015.67 1015.84 1016.05 1016.26 1016.43 1016.54 1016.60 1016.63 1016.66 1016.69 1016.73 1016.76 1016.75 1016.69 1016.55 1016.35 1016.11 1015.87 1015.65 1015.50 1015.41 1015.37 1015.37 1015.37 1015.35 1015.27 1015.14 1014.97 1014.76 1014.54 1014.33 1014.12 1013.92 1013.72 1013.51 1013.28 1013.05 1012.82 1012.62
1016.17 1015.93 1015.81 1015.84 1015.97 1016.18 1016.41 1016.62 1016.78 1016.88 1016.92 1016.94 1016.95 1016.97 1016.97 1016.95 1016.89 1016.76 1016.56 1016.32 1016.05 1015.80 1015.60 1015.47 1015.41 1015.41 1015.43 1015.43 1015.40 1015.30 1015.15 1014.95 1014.72 1014.49 1014.27 1014.06 1013.86 1013.65 1013.42 1013.17 1012.91 1012.65 1012.42
1016.28 1016.11 1016.06 1016.14 1016.32 1016.55 1016.77 1016.95 1017.07 1017.14 1017.16 1017.16 1017.16 1017.16 1017.15 1017.11 1017.01 1016.84 1016.61 1016.33 1016.05 1015.81 1015.62 1015.52 1015.48 1015.50 1015.53 1015.53 1015.47 1015.34 1015.16 1014.93 1014.68 1014.45 1014.23 1014.02 1013.82 1013.61 1013.38 1013.12 1012.83 1012.55 1012.29
1016.53 1016.39 1016.39 1016.50 1016.68 1016.88 1017.06 1017.19 1017.25 1017.27 1017.26 1017.25 1017.25 1017.26 1017.25 1017.20 1017.09 1016.92 1016.67 1016.39 1016.11 1015.87 1015.70 1015.62 1015.60 1015.62 1015.65 1015.63 1015.54 1015.38 1015.17 1014.91 1014.65 1014.41 1014.19 1014.00 1013.82 1013.63 1013.40 1013.14 1012.85 1012.55 1012.28
1016.89 1016.76 1016.76 1016.85 1017.00 1017.14 1017.24 1017.29 1017.28 1017.25 1017.21 1017.19 1017.21 1017.24 1017.25 1017.23 1017.14 1016.97 1016.73 1016.46 1016.18 1015.96 1015.81 1015.73 1015.72 1015.74 1015.75 1015.71 1015.60 1015.41 1015.16 1014.89 1014.62 1014.38 1014.19 1014.02 1013.86 1013.69 1013.49 1013.25 1012.96 1012.67 1012.40
1017.29 1017.15 1017.12 1017.16 1017.23 1017.28 1017.29 1017.25 1017.17 1017.09 1017.03 1017.02 1017.06 1017.13 1017.19 1017.20 1017.14 1016.99 1016.77 1016.51 1016.25 1016.04 1015.89 1015.82 1015.81 1015.83 1015.82 1015.76 1015.63 1015.42 1015.16 1014.88 1014.61 1014.39 1014.22 1014.08 1013.96 1013.83 1013.66 1013.44 1013.18 1012.91 1012.65
1017.71 1017.53 1017.44 1017.41 1017.39 1017.34 1017.25 1017.12 1016.98 1016.86 1016.80 1016.81 1016.88 1016.99 1017.09 1017.14 1017.11 1016.99 1016.79 1016.54 1016.29 1016.09 1015.94 1015.88 1015.86 1015.87 1015.85 1015.78 1015.63 1015.42 1015.16 1014.89 1014.64 1014.43 1014.29 1014.19 1014.11 1014.02 1013.89 1013.71 1013.49 1013.25 1013.02
1018.13 1017.89 1017.73 1017.61 1017.50 1017.35 1017.18 1016.99 1016.81 1016.68 1016.63 1016.66 1016.77 1016.91 1017.05 1017.12 1017.11 1017.00 1016.81 1016.56 1016.32 1016.11 1015.97 1015.89 1015.87 1015.87 1015.85 1015.77 1015.63 1015.42 1015.17 1014.92 1014.69 1014.51 1014.40 1014.33 1014.29 1014.24 1014.15 1014.02 1013.84 1013.64 1013.45
1018.55 1018.26 1018.03 1017.84 1017.64 1017.42 1017.19 1016.97 1016.78 1016.66 1016.64 1016.70 1016.83 1016.99 1017.13 1017.21 1017.19 1017.07 1016.87 1016.62 1016.36 1016.15 1015.99 1015.91 1015.88 1015.87 1015.84 1015.76 1015.62 1015.43 1015.20 1014.97 1014.76 1014.61 1014.53 1014.49 1014.47 1014.46 1014.41 1014.33 1014.19 1014.04 1013.88
1019.04 1018.70 1018.41 1018.15 1017.89 1017.64 1017.40 1017.18 1017.02 1016.93 1016.93 1017.01 1017.15 1017.30 1017.42 1017.46 1017.41 1017.26 1017.03 1016.75 1016.48 1016.24 1016.07 1015.97 1015.92 1015.89 1015.85 1015.77 1015.64 1015.45 1015.24 1015.02 1014.84 1014.71 1014.63 1014.61 1014.61 1014.62 1014.61 1014.56 1014.48 1014.37 1014.26
1019.65 1019.26 1018.92 1018.62 1018.34 1018.09 1017.86 1017.69 1017.57 1017.53 1017.56 1017.65 1017.76 1017.87 1017.93 1017.91 1017.79 1017.59 1017.31 1017.00 1016.70 1016.44 1016.25 1016.12 1016.04 1015.98 1015.91 1015.81 1015.67 1015.48 1015.27 1015.07 1014.89 1014.76 1014.69 1014.66 1014.67 1014.69 1014.70 1014.69 1014.65 1014.59 1014.53
1020.40 1019.98 1019.61 1019.29 1019.01 1018.78 1018.61 1018.49 1018.44 1018.44 1018.49 1018.57 1018.64 1018.67 1018.65 1018.54 1018.34 1018.06 1017.73 1017.39 1017.05 1016.77 1016.54 1016.37 1016.25 1016.14 1016.03 1015.90 1015.73 1015.52 1015.30 1015.09 1014.90 1014.75 1014.66 1014.62 1014.62 1014.63 1014.65 1014.67 1014.67 1014.66 1014.64
1021.31 1020.86 1020.47 1020.14 1019.88 1019.69 1019.58 1019.54 1019.54 1019.58 1019.64 1019.68 1019.69 1019.63 1019.50 1019.29 1019.00 1018.65 1018.27 1017.89 1017.54 1017.22 1016.96 1016.75 1016.56 1016.40 1016.22 1016.03 1015.81 1015.57 1015.32 1015.08 1014.87 1014.70 1014.57 1014.50 1014.46 1014.46 1014.48 1014.50 1014.54 1014.57 1014.61
1022.32 1021.86 1021.45 1021.12 1020.88 1020.75 1020.69 1020.71 1020.77 1020.84 1020.88 1020.87 1020.80 1020.63 1020.39 1020.08 1019.70 1019.30 1018.89 1018.49 1018.11 1017.78 1017.48 1017.22 1016.97 1016.73 1016.48 1016.21 1015.93 1015.64 1015.35 1015.07 1014.82 1014.61 1014.44 1014.32 1014.24 1014.20 1014.19 1014.22 1014.27 1014.34 1014.42
1023.36 1022.89 1022.47 1022.14 1021.93 1021.83 1021.83 1021.89 1021.99 1022.06 1022.08 1022.01 1021.84 1021.57 1021.23 1020.83 1020.39 1019.95 1019.52 1019.11 1018.74 1018.40 1018.07 1017.76 1017.44 1017.12 1016.79 1016.45 1016.10 1015.76 1015.42 1015.10 1014.81 1014.55 1014.32 1014.13 1013.99 1013.90 1013.85 1013.85 1013.91 1014.00 1014.12
1024.33 1023.86 1023.44 1023.11 1022.91 1022.84 1022.87 1022.96 1023.07 1023.13 1023.11 1022.97 1022.72 1022.37 1021.94 1021.47 1021.00 1020.54 1020.12 1019.73 1019.38 1019.03 1018.69 1018.33 1017.96 1017.56 1017.16 1016.74 1016.34 1015.94 1015.57 1015.21 1014.87 1014.56 1014.27 1014.02 1013.79 1013.62 1013.51 1013.47 1013.50 1013.59 1013.73
1025.17 1024.70 1024.28 1023.95 1023.76 1023.70 1023.74 1023.85 1023.95 1023.99 1023.92 1023.72 1023.40 1022.98 1022.50 1021.99 1021.51 1021.07 1020.67 1020.32 1019.99 1019.66 1019.31 1018.92 1018.50 1018.05 1017.58 1017.11 1016.66 1016.23 1015.82 1015.44 1015.07 1014.71 1014.35 1014.01 1013.70 1013.44 1013.24 1013.12 1013.10 1013.17 1013.30
1025.81 1025.37 1024.95 1024.63 1024.44 1024.38 1024.43 1024.53 1024.61 1024.62 1024.51 1024.27 1023.89 1023.43 1022.92 1022.41 1021.94 1021.53 1021.18 1020.87 1020.57 1020.26 1019.91 1019.51 1019.05 1018.56 1018.05 1017.56 1017.08 1016.63 1016.21 1015.81 1015.42 1015.01 1014.59 1014.17 1013.76 1013.38 1013.08 1012.86 1012.76 1012.77 1012.87
1026.28 1025.87 1025.47 1025.16 1024.97 1024.92 1024.96 1025.04 1025.11 1025.09 1024.95 1024.67 1024.27 1023.79 1023.27 1022.78 1022.34 1021.97 1021.66 1021.40 1021.13 1020.84 1020.50 1020.09 1019.62 1019.11 1018.59 1018.08 1017.60 1017.15 1016.74 1016.33 1015.91 1015.47 1014.98 1014.48 1013.97 1013.48 1013.05 1012.73 1012.52 1012.45 1012.49
1026.59 1026.23 1025.87 1025.59 1025.41 1025.36 1025.40 1025.47 1025.52 1025.48 1025.31 1025.01 1024.61 1024.13 1023.63 1023.16 1022.75 1022.42 1022.16 1021.93 1021.69 1021.42 1021.08 1020.67 1020.20 1019.69 1019.17 1018.67 1018.20 1017.77 1017.37 1016.96 1016.53 1016.05 1015.52 1014.93 1014.32 1013.72 1013.18 1012.73 1012.41 1012.24 1012.20
Thickness
5765 5770 5771 5772 5773 5774 5774 5775 5776 5777 5778 5779 5779 5780 5780 5780 5780 5779 5779 5780 5780 5781 5781 5780 5779 5778 5778 5777 5777 5777 5776 5776 5776 5776 5775 5774 5773 5773 5772 5772 5772 5771 5770
5768 5769 5770 5771 5772 5772 5773 5774 5775 5775 5776 5776 5777 5778 5779 5779 5778 5777 5777 5777 5778 5779 5780 5779 5777 5775 5775 5775 5775 5774 5774 5773 5773 5773 5772 5771 5771 5770 5770 5770 5769 5769 5768
5768 5769 5770 5770 5771 5771 5771 5772 5773 5773 5774 5774 5775 5776 5777 5776 5775 5774 5774 5774 5774 5776 5776 5775 5774 5773 5773 5773 5772 5772 5771 5771 5770 5770 5769 5769 5768 5768 5768 5767 5767 5766 5766
5768 5768 5768 5769 5769 5769 5770 5770 5771 5771 5771 5772 5772 5773 5773 5773 5772 5772 5771 5771 5771 5772 5772 5771 5770 5770 5770 5769 5769 5769 5768 5768 5767 5767 5766 5766 5766 5766 5766 5765 5765 5764 5763
5766 5766 5767 5767 5768 5768 5768 5768 5768 5769 5769 5769 5770 5770 5770 5770 5769 5769 5768 5768 5768 5768 5768 5768 5768 5767 5767 5767 5766 5766 5766 5765 5765 5764 5763 5763 5763 5763 5763 5763 5762 5762 5761
5764 5765 5765 5766 5766 5766 5766 5767 5767 5767 5767 5767 5767 5767 5767 5767 5767 5766 5766 5765 5765 5765 5765 5765 5765 5764 5764 5764 5764 5763 5763 5762 5762 5761 5760 5760 5761 5761 5761 5760 5759 5759 5758
5763 5763 5763 5764 5764 5764 5764 5765 5765 5764 5764 5764 5764 5764 5764 5764 5764 5763 5763 5762 5762 5762 5762 5762 5762 5761 5761 5761 5760 5760 5759 5759 5758 5758 5757 5757 5757 5757 5757 5757 5756 5756 5755
5762 5761 5761 5761 5762 5762 5762 5762 5762 5762 5762 5762 5761 5761 5761 5761 5761 5760 5760 5760 5759 5759 5759 5759 5759 5758 5758 5757 5757 5756 5756 5755 5755 5755 5754 5754 5754 5754 5754 5754 5753 5752 5751
5760 5759 5758 5759 5759 5759 5760 5760 5759 5759 5759 5758 5758 5758 5758 5757 5757 5757 5757 5756 5756 5756 5756 5756 5755 5755 5755 5754 5753 5753 5752 5752 5751 5751 5751 5751 5751 5751 5751 5750 5749 5749 5748
5756 5756 5756 5756 5756 5756 5756 5756 5756 5756 5755 5755 5755 5754 5754 5754 5754 5753 5753 5753 5753 5753 5753 5753 5752 5751 5751 5750 5750 5749 5748 5748 5747 5747 5747 5748 5748 5748 5747 5747 5746 5746 5745
5752 5752 5753 5753 5753 5753 5753 5753 5753 5753 5752 5752 5751 5751 5750 5750 5750 5749 5749 5749 5749 5749 5749 5749 5748 5748 5747 5746 5745 5744 5744 5743 5743 5743 5743 5744 5744 5744 5743 5743 5743 5742 5741
5747 5749 5750 5750 5750 5750 5750 5749 5749 5749 5749 5748 5747 5747 5747 5746 5746 5745 5745 5745 5745 5745 5745 5744 5744 5743 5742 5741 5740 5740 5739 5739 5739 5739 5739 5740 5740 5740 5739 5739 5738 5738 5737
5748 5748 5748 5748 5748 5747 5747 5746 5746 5745 5745 5744 5744 5743 5743 5742 5741 5741 5741 5740 5740 5740 5740 5740 5739 5739 5738 5736 5735 5735 5734 5735 5734 5734 5735 5735 5735 5735 5735 5734 5734 5734 5733
5745 5746 5747 5747 5745 5745 5744 5744 5742 5742 5741 5741 5740 5740 5739 5738 5737 5737 5736 5736 5736 5735 5735 5734 5734 5734 5733 5732 5731 5730 5730 5730 5729 5730 5730 5730 5730 5730 5730 5729 5729 5729 5728
5743 5743 5744 5744 5743 5742 5741 5741 5740 5739 5738 5738 5737 5736 5735 5734 5733 5732 5732 5732 5732 5731 5731 5730 5729 5729 5728 5727 5726 5726 5725 5725 5725 5725 5725 5725 5725 5725 5724 5724 5724 5724 5723
5740 5741 5741 5741 5740 5740 5738 5737 5736 5736 5735 5734 5733 5732 5732 5731 5730 5729 5728 5727 5727 5727 5727 5726 5725 5724 5723 5723 5722 5721 5721 5720 5720 5720 5720 5720 5720 5720 5719 5719 5719 5719 5718
5737 5738 5738 5738 5737 5736 5735 5734 5733 5732 5732 5730 5729 5729 5728 5727 5726 5725 5724 5723 5723 5723 5723 5722 5721 5720 5719 5718 5717 5717 5716 5716 5715 5715 5715 5715 5715 5715 5714 5714 5714 5714 5713
5734 5734 5734 5735 5733 5732 5731 5730 5729 5729 5728 5726 5725 5724 5724 5723 5723 5721 5720 5719 5720 5719 5719 5718 5717 5715 5713 5712 5712 5712 5712 5712 5711 5711 5710 5710 5709 5709 5709 5709 5709 5708 5708
5731 5730 5730 5729 5728 5727 5727 5725 5724 5723 5723 5722 5721 5720 5720 5719 5719 5718 5716 5716 5716 5715 5714 5714 5712 5711 5708 5707 5707 5707 5707 5707 5707 5707 5706 5705 5704 5704 5704 5703 5703 5702 5703
5727 5727 5726 5725 5724 5723 5722 5720 5719 5718 5717 5717 5717 5716 5715 5715 5715 5714 5712 5711 5711 5710 5709 5709 5707 5707 5705 5704 5704 5702 5702 5702 5702 5702 5701 5700 5700 5699 5699 5698 5698 5697 5697
5722 5721 5720 5719 5719 5718 5715 5713 5711 5710 5710 5711 5712 5712 5711 5711 5710 5709 5707 5707 5706 5705 5704 5703 5702 5701 5700 5700 5697 5694 5695 5696 5696 5696 5696 5695 5695 5695 5694 5694 5693 5693 5692
5717 5716 5716 5715 5715 5714 5712 5711 5709 5707 5706 5707 5707 5707 5707 5706 5705 5704 5703 5702 5701 5700 5699 5698 5697 5695 5694 5694 5691 5687 5683 5684 5688 5691 5690 5690 5690 5690 5690 5689 5689 5688 5687
5712 5712 5712 5711 5710 5709 5708 5706 5704 5702 5701 5701 5701 5701 5702 5701 5701 5700 5699 5698 5697 5696 5694 5693 5693 5691 5689 5689 5689 5685 5678 5675 5677 5681 5684 5684 5684 5684 5685 5685 5685 5684 5683
5709 5709 5709 5708 5706 5705 5704 5701 5698 5695 5693 5694 5695 5696 5697 5697 5697 5696 5695 5694 5693 5692 5690 5690 5689 5688 5687 5684 5684 5683 5681 5679 5674 5672 5675 5678 5679 5679 5680 5680 5680 5680 5679
5706 5705 5704 5703 5701 5700 5699 5697 5694 5692 5691 5690 5690 5691 5691 5692 5692 5692 5691 5690 5689 5687 5686 5686 5684 5684 5683 5681 5679 5678 5676 5675 5673 5669 5666 5668 5671 5673 5674 5675 5675 5675 5674
5701 5699 5698 5696 5694 5693 5692 5691 5689 5687 5686 5685 5684 5684 5684 5685 5686 5686 5686 5685 5684 5683 5682 5681 5680 5679 5678 5677 5676 5675 5673 5670 5668 5666 5662 5662 5662 5666 5669 5670 5670 5669 5669